Tracking 32142 objects as of 13-Nov-2025
HD Live streaming from Space Station
objects crossing your sky now

STARLINK-35087

Track STARLINK-35087 now!
10-day predictions
STARLINK-35087 is classified as:


NORAD ID: 65541
Int'l Code: 2025-200X
Perigee: 555.5 km
Apogee: 558.1 km
Inclination: 97.6 °
Period: 95.6 minutes
Semi major axis: 6927 km
RCS: Unknown
Launch date: September 6, 2025
Source: United States (US)
Launch site: AIR FORCE EASTERN TEST RANGE (AFETR)
Your satellite tracking list
Your tracking list is empty




NASA's NSSDC Master Catalog

Two Line Element Set (TLE):
1 65541U 25200X   25317.00002315  .00038154  00000-0  26377-2 0  9997
2 65541  97.6045  24.7854 0001843 117.1786 222.5025 15.05601955  5809
Source of the keplerian elements: AFSPC